Year,Month,Day,Hour,Minute,Value (Times are PST for barometer in hPa)
2015,08,29,00,00,1003.02
2015,08,29,00,01,1003.05
2015,08,29,00,02,1003.04
2015,08,29,00,03,1003.00
2015,08,29,00,04,1002.98
2015,08,29,00,05,1002.98
2015,08,29,00,06,1002.96
2015,08,29,00,07,1002.91
2015,08,29,00,08,1002.91
2015,08,29,00,09,1002.91
2015,08,29,00,10,1002.90
2015,08,29,00,11,1002.87
2015,08,29,00,12,1002.85
2015,08,29,00,13,1002.85
2015,08,29,00,14,1002.86
2015,08,29,00,15,1002.87
2015,08,29,00,16,1002.85
2015,08,29,00,17,1002.84
2015,08,29,00,18,1002.83
2015,08,29,00,19,1002.87
2015,08,29,00,20,1002.86
2015,08,29,00,21,1002.87
2015,08,29,00,22,1002.84
2015,08,29,00,23,1002.80
2015,08,29,00,24,1002.77
2015,08,29,00,25,1002.74
2015,08,29,00,26,1002.73
2015,08,29,00,27,1002.70
2015,08,29,00,28,1002.69
2015,08,29,00,29,1002.71
2015,08,29,00,30,1002.70
2015,08,29,00,31,1002.68
2015,08,29,00,32,1002.68
2015,08,29,00,33,1002.65
2015,08,29,00,34,1002.57
2015,08,29,00,35,1002.56
2015,08,29,00,36,1002.54
2015,08,29,00,37,1002.54
2015,08,29,00,38,1002.52
2015,08,29,00,39,1002.47
2015,08,29,00,40,1002.46
2015,08,29,00,41,1002.40
2015,08,29,00,42,1002.37
2015,08,29,00,43,1002.37
2015,08,29,00,44,1002.37
2015,08,29,00,45,1002.38
2015,08,29,00,46,1002.40
2015,08,29,00,47,1002.35
2015,08,29,00,48,1002.29
2015,08,29,00,49,1002.25
2015,08,29,00,50,1002.22
2015,08,29,00,51,1002.30
2015,08,29,00,52,1002.36
2015,08,29,00,53,1002.35
2015,08,29,00,54,1002.33
2015,08,29,00,55,1002.18
2015,08,29,00,56,1002.13
2015,08,29,00,57,1002.12
2015,08,29,00,58,1002.08
2015,08,29,00,59,1002.01
2015,08,29,01,00,1001.93
2015,08,29,01,01,1001.95
2015,08,29,01,02,1001.99
2015,08,29,01,03,1001.95
2015,08,29,01,04,1001.88
2015,08,29,01,05,1001.81
2015,08,29,01,06,1001.75
2015,08,29,01,07,1001.71
2015,08,29,01,08,1001.65
2015,08,29,01,09,1001.63
2015,08,29,01,10,1001.63
2015,08,29,01,11,1001.61
2015,08,29,01,12,1001.55
2015,08,29,01,13,1001.50
2015,08,29,01,14,1001.42
2015,08,29,01,15,1001.32
2015,08,29,01,16,1001.31
2015,08,29,01,17,1001.30
2015,08,29,01,18,1001.32
2015,08,29,01,19,1001.31
2015,08,29,01,20,1001.28
2015,08,29,01,21,1001.24
2015,08,29,01,22,1001.21
2015,08,29,01,23,1001.18
2015,08,29,01,24,1001.12
2015,08,29,01,25,1001.03
2015,08,29,01,26,1000.98
2015,08,29,01,27,1000.99
2015,08,29,01,28,1001.03
2015,08,29,01,29,1001.05
2015,08,29,01,30,1001.04
2015,08,29,01,31,1001.03
2015,08,29,01,32,1001.04
2015,08,29,01,33,1001.01
2015,08,29,01,34,1000.98
2015,08,29,01,35,1000.97
2015,08,29,01,36,1000.94
2015,08,29,01,37,1000.90
2015,08,29,01,38,1000.84
2015,08,29,01,39,1000.80
2015,08,29,01,40,1000.77
2015,08,29,01,41,1000.73
2015,08,29,01,42,1000.69
2015,08,29,01,43,1000.71
2015,08,29,01,44,1000.70
2015,08,29,01,45,1000.68
2015,08,29,01,46,1000.66
2015,08,29,01,47,1000.59
2015,08,29,01,48,1000.49
2015,08,29,01,49,1000.44
2015,08,29,01,50,1000.42
2015,08,29,01,51,1000.36
2015,08,29,01,52,1000.34
2015,08,29,01,53,1000.34
2015,08,29,01,54,1000.34
2015,08,29,01,55,1000.33
2015,08,29,01,56,1000.31
2015,08,29,01,57,1000.32
2015,08,29,01,58,1000.36
2015,08,29,01,59,1000.43
2015,08,29,02,00,1000.48
2015,08,29,02,01,1000.48
2015,08,29,02,02,1000.49
2015,08,29,02,03,1000.50
2015,08,29,02,04,1000.48
2015,08,29,02,05,1000.46
2015,08,29,02,06,1000.39
2015,08,29,02,07,1000.31
2015,08,29,02,08,1000.24
2015,08,29,02,09,1000.24
2015,08,29,02,10,1000.24
2015,08,29,02,11,1000.24
2015,08,29,02,12,1000.24
2015,08,29,02,13,1000.24
2015,08,29,02,14,1000.23
2015,08,29,02,15,1000.18
2015,08,29,02,16,1000.12
2015,08,29,02,17,1000.07
2015,08,29,02,18,1000.04
2015,08,29,02,19,999.97
2015,08,29,02,20,999.96
2015,08,29,02,21,999.92
2015,08,29,02,22,999.92
2015,08,29,02,23,999.96
2015,08,29,02,24,999.93
2015,08,29,02,25,999.93
2015,08,29,02,26,999.93
2015,08,29,02,27,999.95
2015,08,29,02,28,999.98
2015,08,29,02,29,999.93
2015,08,29,02,30,999.93
2015,08,29,02,31,999.92
2015,08,29,02,32,999.90
2015,08,29,02,33,999.91
2015,08,29,02,34,999.91
2015,08,29,02,35,999.88
2015,08,29,02,36,999.90
2015,08,29,02,37,999.90
2015,08,29,02,38,999.91
2015,08,29,02,39,999.94
2015,08,29,02,40,999.96
2015,08,29,02,41,999.95
2015,08,29,02,42,1000.01
2015,08,29,02,43,1000.03
2015,08,29,02,44,1000.02
2015,08,29,02,45,1000.01
2015,08,29,02,46,1000.03
2015,08,29,02,47,1000.02
2015,08,29,02,48,999.98
2015,08,29,02,49,999.91
2015,08,29,02,50,999.85
2015,08,29,02,51,999.78
2015,08,29,02,52,999.71
2015,08,29,02,53,999.64
2015,08,29,02,54,999.53
2015,08,29,02,55,999.44
2015,08,29,02,56,999.37
2015,08,29,02,57,999.31
2015,08,29,02,58,999.28
2015,08,29,02,59,999.27
2015,08,29,03,00,999.31
2015,08,29,03,01,999.28
2015,08,29,03,02,999.28
2015,08,29,03,03,999.35
2015,08,29,03,06,999.26
2015,08,29,03,07,999.18
2015,08,29,03,08,999.08
2015,08,29,03,09,998.99
2015,08,29,03,10,998.90
2015,08,29,03,11,998.77
2015,08,29,03,12,998.68
2015,08,29,03,13,998.66
2015,08,29,03,14,998.59
2015,08,29,03,15,998.52
2015,08,29,03,16,998.44
2015,08,29,03,17,998.36
2015,08,29,03,18,998.29
2015,08,29,03,19,998.27
2015,08,29,03,20,998.26
2015,08,29,03,21,998.23
2015,08,29,03,22,998.18
2015,08,29,03,23,998.11
2015,08,29,03,24,998.06
2015,08,29,03,25,998.06
2015,08,29,03,26,998.14
2015,08,29,03,27,998.26
2015,08,29,03,28,998.39
2015,08,29,03,29,998.50
2015,08,29,03,30,998.54
2015,08,29,03,31,998.53
2015,08,29,03,32,998.51
2015,08,29,03,33,998.52
2015,08,29,03,34,998.54
2015,08,29,03,35,998.54
2015,08,29,03,36,998.52
2015,08,29,03,37,998.46
2015,08,29,03,38,998.38
2015,08,29,03,39,998.32
2015,08,29,03,40,998.25
2015,08,29,03,41,998.17
2015,08,29,03,42,998.10
2015,08,29,03,43,998.12
2015,08,29,03,44,998.14
2015,08,29,03,45,998.14
2015,08,29,03,46,998.16
2015,08,29,03,47,998.20
2015,08,29,03,48,998.16
2015,08,29,03,49,998.13
2015,08,29,03,50,998.09
2015,08,29,03,51,998.08
2015,08,29,03,52,998.08
2015,08,29,03,53,998.03
2015,08,29,03,54,998.00
2015,08,29,03,55,997.99
2015,08,29,03,56,997.98
2015,08,29,03,57,998.00
2015,08,29,03,58,998.00
2015,08,29,03,59,998.00
2015,08,29,04,00,997.99
2015,08,29,04,01,997.97
2015,08,29,04,02,997.97
2015,08,29,04,03,997.97
2015,08,29,04,04,997.97
2015,08,29,04,05,997.97
2015,08,29,04,06,997.97
2015,08,29,04,07,997.96
2015,08,29,04,08,997.93
2015,08,29,04,09,997.91
2015,08,29,04,10,997.95
2015,08,29,04,11,997.96
2015,08,29,04,12,997.94
2015,08,29,04,13,997.92
2015,08,29,04,14,997.89
2015,08,29,04,15,997.85
2015,08,29,04,16,997.78
2015,08,29,04,17,997.66
2015,08,29,04,18,997.57
2015,08,29,04,19,997.48
2015,08,29,04,20,997.37
2015,08,29,04,21,997.29
2015,08,29,04,22,997.21
2015,08,29,04,23,997.17
2015,08,29,04,24,997.11
2015,08,29,04,25,997.08
2015,08,29,04,26,997.04
2015,08,29,04,27,997.02
2015,08,29,04,28,997.02
2015,08,29,04,29,997.01
2015,08,29,04,30,996.98
2015,08,29,04,31,996.95
2015,08,29,04,32,996.95
2015,08,29,04,33,996.94
2015,08,29,04,34,996.92
2015,08,29,04,35,996.92
2015,08,29,04,36,996.92
2015,08,29,04,37,996.90
2015,08,29,04,38,996.85
2015,08,29,04,39,996.85
2015,08,29,04,40,996.82
2015,08,29,04,41,996.74
2015,08,29,04,42,996.71
2015,08,29,04,43,996.64
2015,08,29,04,44,996.55
2015,08,29,04,45,996.51
2015,08,29,04,46,996.51
2015,08,29,04,47,996.49
2015,08,29,04,48,996.45
2015,08,29,04,49,996.44
2015,08,29,04,50,996.39
2015,08,29,04,51,996.33
2015,08,29,04,52,996.30
2015,08,29,04,53,996.25
2015,08,29,04,54,996.18
2015,08,29,04,55,996.09
2015,08,29,04,56,995.97
2015,08,29,04,57,995.90
2015,08,29,04,58,995.90
2015,08,29,04,59,995.91
2015,08,29,05,00,995.93
2015,08,29,05,01,995.90
2015,08,29,05,02,995.88
2015,08,29,05,03,995.85
2015,08,29,05,04,995.89
2015,08,29,05,05,995.93
2015,08,29,05,06,995.94
2015,08,29,05,07,996.02
2015,08,29,05,08,996.04
2015,08,29,05,09,996.04
2015,08,29,05,10,996.05
2015,08,29,05,11,996.08
2015,08,29,05,12,996.12
2015,08,29,05,13,996.14
2015,08,29,05,14,996.15
2015,08,29,05,15,996.16
2015,08,29,05,16,996.11
2015,08,29,05,17,996.06
2015,08,29,05,18,996.03
2015,08,29,05,19,995.98
2015,08,29,05,20,995.92
2015,08,29,05,21,995.84
2015,08,29,05,22,995.73
2015,08,29,05,23,995.65
2015,08,29,05,24,995.61
2015,08,29,05,25,995.63
2015,08,29,05,26,995.65
2015,08,29,05,27,995.69
2015,08,29,05,28,995.65
2015,08,29,05,29,995.60
2015,08,29,05,30,995.59
2015,08,29,05,31,995.54
2015,08,29,05,32,995.49
2015,08,29,05,33,995.46
2015,08,29,05,34,995.45
2015,08,29,05,35,995.43
2015,08,29,05,36,995.43
2015,08,29,05,37,995.43
2015,08,29,05,38,995.43
2015,08,29,05,39,995.47
2015,08,29,05,40,995.57
2015,08,29,05,41,995.59
2015,08,29,05,42,995.57
2015,08,29,05,43,995.60
2015,08,29,05,44,995.59
2015,08,29,05,45,995.56
2015,08,29,05,46,995.56
2015,08,29,05,47,995.56
2015,08,29,05,48,995.56
2015,08,29,05,49,995.57
2015,08,29,05,50,995.59
2015,08,29,05,51,995.56
2015,08,29,05,52,995.58
2015,08,29,05,53,995.64
2015,08,29,05,54,995.72
2015,08,29,05,55,995.79
2015,08,29,05,56,995.75
2015,08,29,05,57,995.71
2015,08,29,05,58,995.72
2015,08,29,05,59,995.69
2015,08,29,06,00,995.66
2015,08,29,06,01,995.63
2015,08,29,06,02,995.62
2015,08,29,06,03,995.64
2015,08,29,06,04,995.72
2015,08,29,06,05,995.74
2015,08,29,06,06,995.67
2015,08,29,06,07,995.59
2015,08,29,06,08,995.56
2015,08,29,06,09,995.58
2015,08,29,06,10,995.63
2015,08,29,06,11,995.64
2015,08,29,06,12,995.68
2015,08,29,06,13,995.70
2015,08,29,06,14,995.67
2015,08,29,06,15,995.63
2015,08,29,06,16,995.64
2015,08,29,06,17,995.71
2015,08,29,06,18,995.79
2015,08,29,06,19,995.88
2015,08,29,06,20,996.01
2015,08,29,06,21,996.19
2015,08,29,06,22,996.40
2015,08,29,06,23,996.52
2015,08,29,06,24,996.60
2015,08,29,06,25,996.70
2015,08,29,06,26,996.80
2015,08,29,06,27,996.96
2015,08,29,06,28,997.05
2015,08,29,06,29,997.16
2015,08,29,06,30,997.22
2015,08,29,06,31,997.23
2015,08,29,06,32,997.27
2015,08,29,06,33,997.29
2015,08,29,06,34,997.31
2015,08,29,06,35,997.35
2015,08,29,06,36,997.33
2015,08,29,06,37,997.30
2015,08,29,06,38,997.25
2015,08,29,06,39,997.21
2015,08,29,06,40,997.18
2015,08,29,06,41,997.08
2015,08,29,06,42,996.86
2015,08,29,06,43,996.67
2015,08,29,06,44,996.46
2015,08,29,06,45,996.34
2015,08,29,06,46,996.29
2015,08,29,06,47,996.32
2015,08,29,06,48,996.33
2015,08,29,06,49,996.26
2015,08,29,06,50,996.16
2015,08,29,06,51,996.14
2015,08,29,06,52,996.14
2015,08,29,06,53,996.16
2015,08,29,06,54,996.21
2015,08,29,06,55,996.17
2015,08,29,06,56,996.10
2015,08,29,06,57,996.08
2015,08,29,06,58,996.11
2015,08,29,06,59,996.09
2015,08,29,07,00,996.02
2015,08,29,07,01,995.93
2015,08,29,07,02,995.80
2015,08,29,07,03,995.64
2015,08,29,07,04,995.46
2015,08,29,07,05,995.25
2015,08,29,07,06,995.04
2015,08,29,07,07,994.97
2015,08,29,07,08,995.02
2015,08,29,07,09,995.06
2015,08,29,07,10,995.03
2015,08,29,07,11,994.91
2015,08,29,07,12,994.81
2015,08,29,07,13,994.88
2015,08,29,07,14,994.92
2015,08,29,07,15,994.95
2015,08,29,07,16,995.03
2015,08,29,07,17,995.12
2015,08,29,07,18,995.13
2015,08,29,07,19,995.15
2015,08,29,07,20,995.13
2015,08,29,07,21,995.16
2015,08,29,07,22,995.18
2015,08,29,07,23,995.22
2015,08,29,07,24,995.20
2015,08,29,07,25,995.23
2015,08,29,07,26,995.18
2015,08,29,07,27,995.07
2015,08,29,07,28,994.98
2015,08,29,07,29,994.88
2015,08,29,07,30,994.79
2015,08,29,07,31,994.83
2015,08,29,07,32,995.02
2015,08,29,07,33,995.20
2015,08,29,07,34,995.18
2015,08,29,07,35,995.09
2015,08,29,07,36,995.10
2015,08,29,07,37,995.07
2015,08,29,07,38,994.96
2015,08,29,07,39,994.96
2015,08,29,07,40,994.97
2015,08,29,07,41,995.02
2015,08,29,07,42,995.09
2015,08,29,07,43,995.07
2015,08,29,07,44,995.00
2015,08,29,07,45,994.96
2015,08,29,07,46,994.92
2015,08,29,07,47,994.85
2015,08,29,07,48,994.85
2015,08,29,07,49,994.86
2015,08,29,07,50,994.84
2015,08,29,07,51,994.71
2015,08,29,07,52,994.60
2015,08,29,07,53,994.54
2015,08,29,07,54,994.52
2015,08,29,07,55,994.47
2015,08,29,07,56,994.32
2015,08,29,07,57,994.21
2015,08,29,07,58,994.23
2015,08,29,07,59,994.21
2015,08,29,08,00,993.96
2015,08,29,08,01,993.66
2015,08,29,08,02,993.68
2015,08,29,08,03,993.96
2015,08,29,08,04,994.22
2015,08,29,08,05,994.23
2015,08,29,08,06,993.97
2015,08,29,08,07,993.78
2015,08,29,08,08,993.88
2015,08,29,08,09,994.09
2015,08,29,08,10,994.10
2015,08,29,08,11,994.01
2015,08,29,08,12,993.89
2015,08,29,08,13,993.81
2015,08,29,08,14,993.89
2015,08,29,08,15,993.95
2015,08,29,08,16,993.89
2015,08,29,08,17,993.92
2015,08,29,08,18,994.08
2015,08,29,08,19,994.06
2015,08,29,08,20,993.94
2015,08,29,08,21,993.93
2015,08,29,08,22,993.97
2015,08,29,08,23,994.18
2015,08,29,08,24,994.31
2015,08,29,08,25,994.30
2015,08,29,08,26,994.33
2015,08,29,08,27,994.48
2015,08,29,08,28,994.60
2015,08,29,08,29,994.56
2015,08,29,08,30,994.57
2015,08,29,08,31,994.58
2015,08,29,08,32,994.65
2015,08,29,08,33,994.65
2015,08,29,08,34,994.67
2015,08,29,08,35,994.72
2015,08,29,08,36,994.70
2015,08,29,08,37,994.63
2015,08,29,08,38,994.60
2015,08,29,08,39,994.68
2015,08,29,08,40,994.77
2015,08,29,08,41,994.85
2015,08,29,08,42,994.95
2015,08,29,08,43,994.99
2015,08,29,08,44,994.95
2015,08,29,08,45,994.99
2015,08,29,08,46,994.98
2015,08,29,08,47,994.96
2015,08,29,08,48,994.95
2015,08,29,08,49,994.92
2015,08,29,08,50,994.95
2015,08,29,08,51,995.03
2015,08,29,08,52,995.08
2015,08,29,08,53,995.14
2015,08,29,08,54,995.17
2015,08,29,08,55,995.10
2015,08,29,08,56,995.05
2015,08,29,08,57,995.05
2015,08,29,08,58,995.13
2015,08,29,08,59,995.17
2015,08,29,09,00,995.19
2015,08,29,09,01,995.16
2015,08,29,09,02,995.08
2015,08,29,09,03,995.05
2015,08,29,09,04,995.03
2015,08,29,09,05,995.07
2015,08,29,09,06,995.08
2015,08,29,09,07,995.06
2015,08,29,09,08,995.07
2015,08,29,09,09,995.07
2015,08,29,09,10,995.02
2015,08,29,09,11,995.00
2015,08,29,09,12,994.96
2015,08,29,09,13,994.94
2015,08,29,09,14,994.86
2015,08,29,09,15,994.80
2015,08,29,09,16,994.74
2015,08,29,09,17,994.72
2015,08,29,09,18,994.71
2015,08,29,09,19,994.69
2015,08,29,09,20,994.72
2015,08,29,09,21,994.68
2015,08,29,09,22,994.62
2015,08,29,09,23,994.61
2015,08,29,09,24,994.58
2015,08,29,09,25,994.59
2015,08,29,09,26,994.62
2015,08,29,09,27,994.64
2015,08,29,09,28,994.71
2015,08,29,09,29,994.81
2015,08,29,09,30,994.86
2015,08,29,09,31,994.89
2015,08,29,09,32,994.86
2015,08,29,09,33,994.79
2015,08,29,09,34,994.76
2015,08,29,09,35,994.68
2015,08,29,09,36,994.69
2015,08,29,09,37,994.75
2015,08,29,09,38,994.79
2015,08,29,09,39,994.73
2015,08,29,09,40,994.75
2015,08,29,09,41,994.80
2015,08,29,09,42,994.86
2015,08,29,09,43,994.78
2015,08,29,09,44,994.76
2015,08,29,09,45,994.79
2015,08,29,09,46,994.79
2015,08,29,09,47,994.80
2015,08,29,09,48,994.78
2015,08,29,09,49,994.67
2015,08,29,09,50,994.63
2015,08,29,09,51,994.59
2015,08,29,09,52,994.60
2015,08,29,09,53,994.52
2015,08,29,09,54,994.41
2015,08,29,09,55,994.32
2015,08,29,09,56,994.32
2015,08,29,09,57,994.23
2015,08,29,09,58,994.24
2015,08,29,09,59,994.26
2015,08,29,10,00,994.14
2015,08,29,10,01,994.11
2015,08,29,10,02,994.01
2015,08,29,10,03,994.02
2015,08,29,10,04,994.06
2015,08,29,10,05,994.10
2015,08,29,10,06,994.02
2015,08,29,10,07,993.89
2015,08,29,10,08,993.86
2015,08,29,10,09,993.85
2015,08,29,10,10,993.72
2015,08,29,10,11,993.76
2015,08,29,10,12,993.74
2015,08,29,10,13,993.76
2015,08,29,10,14,993.77
2015,08,29,10,15,993.66
2015,08,29,10,16,993.61
2015,08,29,10,17,993.56
2015,08,29,10,18,993.49
2015,08,29,10,19,993.43
2015,08,29,10,20,993.50
2015,08,29,10,21,993.49
2015,08,29,10,22,993.46
2015,08,29,10,23,993.42
2015,08,29,10,24,993.42
2015,08,29,10,25,993.48
2015,08,29,10,26,993.52
2015,08,29,10,27,993.59
2015,08,29,10,28,993.61
2015,08,29,10,29,993.59
2015,08,29,10,30,993.60
2015,08,29,10,31,993.48
2015,08,29,10,32,993.35
2015,08,29,10,33,993.33
2015,08,29,10,34,993.34
2015,08,29,10,35,993.37
2015,08,29,10,36,993.43
2015,08,29,10,37,993.52
2015,08,29,10,38,993.51
2015,08,29,10,39,993.55
2015,08,29,10,40,993.58
2015,08,29,10,41,993.53
2015,08,29,10,42,993.50
2015,08,29,10,43,993.42
2015,08,29,10,44,993.39
2015,08,29,10,45,993.37
2015,08,29,10,46,993.40
2015,08,29,10,47,993.39
2015,08,29,10,48,993.41
2015,08,29,10,49,993.52
2015,08,29,10,50,993.57
2015,08,29,10,51,993.61
2015,08,29,10,52,993.68
2015,08,29,10,53,993.64
2015,08,29,10,54,993.63
2015,08,29,10,55,993.50
2015,08,29,10,56,993.43
2015,08,29,10,57,993.42
2015,08,29,10,58,993.41
2015,08,29,10,59,993.41
2015,08,29,11,00,993.33
2015,08,29,11,01,993.23
2015,08,29,11,02,993.14
2015,08,29,11,03,993.11
2015,08,29,11,04,993.15
2015,08,29,11,05,993.12
2015,08,29,11,06,993.03
2015,08,29,11,07,992.91
2015,08,29,11,08,992.94
2015,08,29,11,09,992.85
2015,08,29,11,10,992.67
2015,08,29,11,11,992.53
2015,08,29,11,12,992.60
2015,08,29,11,13,992.54
2015,08,29,11,14,992.68
2015,08,29,11,15,992.63
2015,08,29,11,16,992.61
2015,08,29,11,17,992.71
2015,08,29,11,18,992.70
2015,08,29,11,19,992.70
2015,08,29,11,20,993.01
2015,08,29,11,21,992.95
2015,08,29,11,22,992.70
2015,08,29,11,23,992.70
2015,08,29,11,24,992.65
2015,08,29,11,25,992.63
2015,08,29,11,26,992.60
2015,08,29,11,27,992.64
2015,08,29,11,28,992.54
2015,08,29,11,29,992.23
2015,08,29,11,30,992.18
2015,08,29,11,31,992.42
2015,08,29,11,32,992.20
2015,08,29,11,33,992.37
2015,08,29,11,34,992.24
2015,08,29,11,35,992.42
2015,08,29,11,36,992.44
2015,08,29,11,37,992.33
2015,08,29,11,38,992.37
2015,08,29,11,39,992.27
2015,08,29,11,40,992.42
2015,08,29,11,41,992.31
2015,08,29,11,42,992.43
2015,08,29,11,43,992.61
2015,08,29,11,44,992.72
2015,08,29,11,45,992.81
2015,08,29,11,46,992.77
2015,08,29,11,47,992.67
2015,08,29,11,48,992.91
2015,08,29,11,49,992.79
2015,08,29,11,50,992.84
2015,08,29,11,51,992.90
2015,08,29,11,52,992.73
2015,08,29,11,53,992.72
2015,08,29,11,54,992.82
2015,08,29,11,55,992.96
2015,08,29,11,56,993.12
2015,08,29,11,57,993.05
2015,08,29,11,58,993.00
2015,08,29,11,59,993.04
2015,08,29,12,00,992.98
2015,08,29,12,01,993.18
2015,08,29,12,02,993.26
2015,08,29,12,03,993.29
2015,08,29,12,04,993.35
2015,08,29,12,05,993.42
2015,08,29,12,06,993.59
2015,08,29,12,07,993.54
2015,08,29,12,08,993.67
2015,08,29,12,09,993.81
2015,08,29,12,10,993.87
2015,08,29,12,11,993.73
2015,08,29,12,12,993.84
2015,08,29,12,13,993.94
2015,08,29,12,14,993.94
2015,08,29,12,15,994.02
2015,08,29,12,16,994.21
2015,08,29,12,17,994.18
2015,08,29,12,18,994.17
2015,08,29,12,19,994.32
2015,08,29,12,20,994.36
2015,08,29,12,21,994.38
2015,08,29,12,22,994.43
2015,08,29,12,23,994.54
2015,08,29,12,24,994.41
2015,08,29,12,25,994.50
2015,08,29,12,26,994.67
2015,08,29,12,27,994.52
2015,08,29,12,28,994.57
2015,08,29,12,29,994.68
2015,08,29,12,30,994.78
2015,08,29,12,31,995.01
2015,08,29,12,32,994.99
2015,08,29,12,33,994.93
2015,08,29,12,34,994.75
2015,08,29,12,35,994.70
2015,08,29,12,36,994.83
2015,08,29,12,37,994.89
2015,08,29,12,38,994.95
2015,08,29,12,39,994.90
2015,08,29,12,40,995.05
2015,08,29,12,41,995.03
2015,08,29,12,42,995.06
2015,08,29,12,43,995.07
2015,08,29,12,44,995.08
2015,08,29,12,45,995.04
2015,08,29,12,46,995.02
2015,08,29,12,47,995.10
2015,08,29,12,48,995.13
2015,08,29,12,49,995.20
2015,08,29,12,50,995.28
2015,08,29,12,51,995.27
2015,08,29,12,52,995.30
2015,08,29,12,53,995.35
2015,08,29,12,54,995.39
2015,08,29,12,55,995.37
2015,08,29,12,56,995.45
2015,08,29,12,57,995.53
2015,08,29,12,58,995.48
2015,08,29,12,59,995.55
2015,08,29,13,00,995.62
2015,08,29,13,01,995.67
2015,08,29,13,02,995.65
2015,08,29,13,03,995.62
2015,08,29,13,04,995.67
2015,08,29,13,05,995.66
2015,08,29,13,06,995.67
2015,08,29,13,07,995.80
2015,08,29,13,08,995.88
2015,08,29,13,09,995.93
2015,08,29,13,10,996.02
2015,08,29,13,11,996.06
2015,08,29,13,12,996.08
2015,08,29,13,13,996.02
2015,08,29,13,14,996.04
2015,08,29,13,15,996.06
2015,08,29,13,16,996.10
2015,08,29,13,17,996.06
2015,08,29,13,18,996.07
2015,08,29,13,19,996.13
2015,08,29,13,20,996.04
2015,08,29,13,21,996.00
2015,08,29,13,22,995.92
2015,08,29,13,23,996.03
2015,08,29,13,24,996.24
2015,08,29,13,25,996.35
2015,08,29,13,26,996.40
2015,08,29,13,27,996.43
2015,08,29,13,28,996.40
2015,08,29,13,29,996.47
2015,08,29,13,30,996.50
2015,08,29,13,31,996.47
2015,08,29,13,32,996.50
2015,08,29,13,33,996.63
2015,08,29,13,34,996.69
2015,08,29,13,35,996.72
2015,08,29,13,36,996.78
2015,08,29,13,37,996.96
2015,08,29,13,38,997.00
2015,08,29,13,39,997.02
2015,08,29,13,40,997.00
2015,08,29,13,41,996.95
2015,08,29,13,42,996.99
2015,08,29,13,43,997.11
2015,08,29,13,44,997.14
2015,08,29,13,45,997.09
2015,08,29,13,46,997.12
2015,08,29,13,47,997.23
2015,08,29,13,48,997.32
2015,08,29,13,49,997.27
2015,08,29,13,50,997.27
2015,08,29,13,51,997.50
2015,08,29,13,52,997.58
2015,08,29,13,53,997.54
2015,08,29,13,54,997.61
2015,08,29,13,55,997.74
2015,08,29,13,56,997.78
2015,08,29,13,57,997.79
2015,08,29,13,58,997.72
2015,08,29,13,59,997.64
2015,08,29,14,00,997.71
2015,08,29,14,01,997.70
2015,08,29,14,02,997.82
2015,08,29,14,03,997.89
2015,08,29,14,04,997.87
2015,08,29,14,05,997.74
2015,08,29,14,06,997.85
2015,08,29,14,07,997.91
2015,08,29,14,08,997.96
2015,08,29,14,09,998.00
2015,08,29,14,10,998.05
2015,08,29,14,11,998.17
2015,08,29,14,12,998.15
2015,08,29,14,13,998.13
2015,08,29,14,14,998.23
2015,08,29,14,15,998.25
2015,08,29,14,16,998.19
2015,08,29,14,17,998.16
2015,08,29,14,18,998.22
2015,08,29,14,19,998.25
2015,08,29,14,20,998.26
2015,08,29,14,21,998.22
2015,08,29,14,22,998.19
2015,08,29,14,23,998.25
2015,08,29,14,24,998.26
2015,08,29,14,25,998.26
2015,08,29,14,26,998.35
2015,08,29,14,27,998.43
2015,08,29,14,28,998.41
2015,08,29,14,29,998.44
2015,08,29,14,30,998.53
2015,08,29,14,31,998.46
2015,08,29,14,32,998.39
2015,08,29,14,33,998.51
2015,08,29,14,34,998.53
2015,08,29,14,35,998.61
2015,08,29,14,36,998.69
2015,08,29,14,37,998.70
2015,08,29,14,38,998.72
2015,08,29,14,39,998.83
2015,08,29,14,40,998.81
2015,08,29,14,41,998.89
2015,08,29,14,42,998.95
2015,08,29,14,43,999.03
2015,08,29,14,44,999.05
2015,08,29,14,45,999.07
2015,08,29,14,46,999.15
2015,08,29,14,47,999.22
2015,08,29,14,48,999.21
2015,08,29,14,49,999.23
2015,08,29,14,50,999.41
2015,08,29,14,51,999.57
2015,08,29,14,52,999.42
2015,08,29,14,53,999.45
2015,08,29,14,54,999.60
2015,08,29,14,55,999.58
2015,08,29,14,56,999.51
2015,08,29,14,57,999.68
2015,08,29,14,58,999.63
2015,08,29,14,59,999.63
2015,08,29,15,00,999.63
2015,08,29,15,01,999.66
2015,08,29,15,02,999.72
2015,08,29,15,03,999.66
2015,08,29,15,04,999.70
2015,08,29,15,05,999.64
2015,08,29,15,06,999.67
2015,08,29,15,07,999.73
2015,08,29,15,08,999.83
2015,08,29,15,09,999.82
2015,08,29,15,10,999.66
2015,08,29,15,11,999.73
2015,08,29,15,12,999.71
2015,08,29,15,13,999.69
2015,08,29,15,14,999.76
2015,08,29,15,15,999.74
2015,08,29,15,16,999.67
2015,08,29,15,17,999.57
2015,08,29,15,18,999.54
2015,08,29,15,19,999.57
2015,08,29,15,20,999.64
2015,08,29,15,21,999.75
2015,08,29,15,22,999.79
2015,08,29,15,23,999.92
2015,08,29,15,24,999.90
2015,08,29,15,25,999.91
2015,08,29,15,26,999.89
2015,08,29,15,27,999.85
2015,08,29,15,28,999.99
2015,08,29,15,29,999.82
2015,08,29,15,30,999.87
2015,08,29,15,31,999.86
2015,08,29,15,32,999.86
2015,08,29,15,33,999.95
2015,08,29,15,34,1000.02
2015,08,29,15,35,1000.08
2015,08,29,15,36,1000.08
2015,08,29,15,37,1000.03
2015,08,29,15,38,1000.15
2015,08,29,15,39,1000.17
2015,08,29,15,40,1000.17
2015,08,29,15,41,1000.21
2015,08,29,15,42,1000.29
2015,08,29,15,43,1000.23
2015,08,29,15,44,1000.22
2015,08,29,15,45,1000.29
2015,08,29,15,46,1000.36
2015,08,29,15,47,1000.43
2015,08,29,15,48,1000.49
2015,08,29,15,49,1000.51
2015,08,29,15,50,1000.49
2015,08,29,15,51,1000.47
2015,08,29,15,52,1000.53
2015,08,29,15,53,1000.50
2015,08,29,15,54,1000.51
2015,08,29,15,55,1000.62
2015,08,29,15,56,1000.64
2015,08,29,15,57,1000.67
2015,08,29,15,58,1000.77
2015,08,29,15,59,1000.75
2015,08,29,16,00,1000.85
2015,08,29,16,01,1000.79
2015,08,29,16,02,1000.88
2015,08,29,16,03,1000.96
2015,08,29,16,04,1000.86
2015,08,29,16,05,1000.80
2015,08,29,16,06,1000.79
2015,08,29,16,07,1000.84
2015,08,29,16,08,1000.96
2015,08,29,16,09,1001.00
2015,08,29,16,10,1001.07
2015,08,29,16,11,1001.11
2015,08,29,16,12,1001.06
2015,08,29,16,13,1001.02
2015,08,29,16,14,1001.01
2015,08,29,16,15,1000.94
2015,08,29,16,16,1000.82
2015,08,29,16,17,1000.84
2015,08,29,16,18,1000.80
2015,08,29,16,19,1000.76
2015,08,29,16,20,1000.70
2015,08,29,16,21,1000.68
2015,08,29,16,22,1000.70
2015,08,29,16,23,1000.77
2015,08,29,16,24,1000.82
2015,08,29,16,25,1000.84
2015,08,29,16,26,1000.81
2015,08,29,16,27,1000.79
2015,08,29,16,28,1000.76
2015,08,29,16,29,1000.80